Regional Weather Roundup
Issued by NWS

Home | Current Version | Previous Version | Text Only | Print | Product List | Glossary Off
Versions: 1 2 3 4 5 6 7 8 9 10 11 12 13 14 15 16 17 18 19 20 21 22 23 24 25 26 27 28 29 30 31 32 33 34 35 36 37 38 39 40 41 42 43 44 45 46 47 48 49 50

000
ASUS43 KFSD 220702
RWRSD

WEATHER ROUNDUP FOR SOUTH DAKOTA
NATIONAL WEATHER SERVICE SIOUX FALLS SD
200 AM CDT SAT JUL 22 2017

NOTE: "FAIR" INDICATES FEW OR NO CLOUDS BELOW 12,000 FEET WITH NO
SIGNIFICANT WEATHER AND/OR OBSTRUCTIONS TO VISIBILITY.


SDZ001>005-009-010-012>017-220800-
NORTHWEST AND NORTH CENTRAL SOUTH DAKOTA

CITY           SKY/WX    TMP DP  RH WIND       PRES   REMARKS
BUFFALO          N/A     69  41  36 N14       29.90R
FAITH            N/A     66  44  45 NW7       29.91R
MOBRIDGE       CLOUDY    69  64  84 N6        29.84R
$$

SDZ012>016-024>037-041>051-057-063-072>074-220800-
SOUTHWEST AND SOUTH CENTRAL SOUTH DAKOTA

CITY           SKY/WX    TMP DP  RH WIND       PRES   REMARKS
RAPID CTY ARPT CLOUDY    70  42  36 NW8       29.97R
PIERRE         CLOUDY    71  67  87 CALM      29.84R
CUSTER         CLOUDY    64  38  38 W8        30.16R
ELLSWORTH AFB  CLOUDY    71  42  34 W8        29.97R
PHILIP         CLEAR     73  47  39 N12       29.88R
PINE RIDGE     MOCLDY    68  62  81 CALM      29.99R
SPEARFISH      FAIR      61  41  48 CALM      30.04R
WINNER         FAIR      79  59  50 NW8       29.86R
$$

SDZ004>011-016>023-039-040-220800-
NORTHEAST SOUTH DAKOTA

CITY           SKY/WX    TMP DP  RH WIND       PRES   REMARKS
ABERDEEN       CLOUDY    67  66  97 W5        29.81S
WATERTOWN      CLOUDY    67  32  27 SE15G30   29.79R
SISSETON         N/A     74  70  87 S8        29.81R
$$

SDZ017-020-022-023-036>040-048>070-220800-
SOUTHEAST SOUTH DAKOTA

CITY           SKY/WX    TMP DP  RH WIND       PRES   REMARKS
SIOUX FALLS    CLOUDY    75  73  93 E13       29.81S
HURON          CLOUDY    68  67  96 NE16      29.80F
CHAMBERLAIN    CLEAR     72  68  86 NE8       29.85R
MITCHELL       CLOUDY    69  67  93 E9        29.84F
YANKTON        CLEAR     75  74  96 NE6       29.79F FOG
$$

ABBREVIATIONS USED IN REMARKS
   TC - TEMPERATURE IN CELSIUS
  WCI - WIND CHILL INDEX
   HX - HEAT INDEX
  VSB - VISIBILITY





USA.gov is the U.S. government's official web portal to all federal, state and local government web resources and services.